SL-16 DEB, 22502

Orbit data source: Space-Track

SL-16 DEB, 22502 is space debris in LEO originally from a launch on Fri, 25 Dec 1992 UTC launched from the Tyuratam Missile And Space Complex (TTMTR). Debris objects in space refer to the collection of defunct objects orbiting the Earth. Examples of debris include non-operational satellites, rocket bodies, and fragments generated from explosions, collisions, or faulty payload assembly.

Loading next visibility...
Identifier
22502, 1992-093GM
Orbit
LEO
Country
Flag of CISCIS
Related business
Manufacturer
Unknown
Mission
Spacecraft
Bus & Motor
Unknown
Mass
Unknown
Launch date (UTC)
1992-12-25 (33 years ago)
Launch vehicle
Unknown
Launch site
Tyuratam Missile And Space Complex (TTMTR)
Object type
Payload
Rocket body
Debris
Shape & HBR
Unknown shape, 0.1 m
Radar Cross Section
Small (<0.1 m²)

Expand to show TLE details & history
Last TLE update: 1 day ago

TLE from 1 day ago
0 SL-16 DEB
1 22502U 92093GM  25302.84637593  .00000435  00000-0  35758-3 0  9994
2 22502  70.8148  81.8387 0154908 262.5667 252.1187 13.89574416662342
Epoch: 2025-10-29T20:18Z
TLE epoch observation values (Epoch: 2025-10-29T20:18:46.880Z)
Latitude
25.42375°
Longitude
-90.7405°
Altitude
968.997 km
Speed
7.351 km/s
True Right ascension
16h 49m 28s
True Declination
25° 17' 40"
Sunlit
Object was in daylight at epoch
Visualization orbit readout
Latitude
Unknown
Longitude
Unknown
Altitude
Unknown
Speed
Unknown
Apparent Right ascension
Unknown
Apparent Declination
Unknown
Sunlit
N/A
Visualization observer readout
Local Sidereal Time
15:29:08
Azimuth
Unknown
Elevation
Unknown
Doppler factor
Unknown
Orbital elements
Apogee altitude
1,041.269 km
Perigee altitude
814.911 km
Semi-major axis
7,306.227 km
Eccentricity
0.01549
Inclination
70.8148°
RAAN
81.8387°
Arg. of periapsis
262.5667°
True anomaly
250.43956°
Mean anomaly
252.1187°
Eccentric anomaly
251.27811°
Mean motion
3.47539 °/min
Orbital period
103.59 mins
BSTAR
0.00035758
Loading maneuver chart data...
Computing Atmospheric mass density...
Loading historical data...
Loading historical data...
Loading historical data...
Loading historical data...
Loading historical data...
Loading historical data...
Loading historical data...

Documentation

Showing up to 5 results
|